Miscellaneous Local Product
Issued by NWS North Platte, NE

Home | Current Version | Previous Version | Text Only | Print | Product List | Glossary On
Versions: 1 2 3 4 5 6 7 8 9 10 11 12 13 14 15 16 17 18 19 20 21 22 23 24 25 26 27 28 29 30 31 32 33 34 35 36 37 38 39 40 41 42 43 44 45 46 47 48 49 50
000
AXUS43 KLBF 051710
MISLBF


WESTERN AND NORTH CENTRAL NEBRASKA HOURLY WEATHER ROUNDUP
NATIONAL WEATHER SERVICE NORTH PLATTE NE
1200 PM CDT SUN JUL 05 2015

***STATIONS NOT REPORTING VARIABLES SUCH AS SKY/WEATHER OR
PRESSURE ARE PROVIDED BY THE NEBRASKA DEPARTMENT OF
ROADS...RAWS...AND APRS NETWORKS...AND ARE NOT UNDER
NATIONAL WEATHER SERVICE QUALITY CONTROL***

...OBSERVATIONS IN AND NEAR THE EASTERN PANHANDLE OF NEBRASKA...

CITY           SKY/WX    TMP DP  RH WIND       PRES   REMARKS
PINE RIDGE     PTSUNNY   87  68  52 SW8       29.79S HX  90
CHADRON        MOSUNNY   90  61  37 W10       29.79S HX  90
ALLIANCE       SUNNY     86  64  47 SW3       29.85S
SIDNEY         SUNNY     90  52  27 VRB5      29.91S
WHITECLAY        N/A     87  66  50 S9          N/A
CRESCENT LAKE    N/A     86  64  47 S7          N/A
BIG SPRINGS      N/A     87  61  41 NW3         N/A
$$

...OBSERVATIONS IN NORTH CENTRAL NEBRASKA...

CITY           SKY/WX    TMP DP  RH WIND       PRES   REMARKS
VALENTINE      SUNNY     88  67  49 S14       29.78F HX  91
THEDFORD       SUNNY     86  67  52 S15       29.84S
AINSWORTH      SUNNY     86  68  55 S15       29.81F
O`NEILL        SUNNY     82  70  68 S18G26    29.83F
ORD            SUNNY     83  68  60 S14       29.83F
BROKEN BOW     SUNNY     84  69  60 SE15G26   29.84F
VALENTINE NWR    N/A     85  68  56 S13G20      N/A
SPRINGVIEW       N/A     87  70  56 SE8G15      N/A  HX  91
HALSEY           N/A     86  65  49 S9G18       N/A
BREWSTER         N/A     87  72  59 S16         N/A  HX  94
ROSE             N/A     92  82  72 S18         N/A  HX 112
NEWPORT          N/A     85  67  54 S15         N/A
SARGENT          N/A     80  70  71 SE3G12      N/A
CHAMBERS         N/A     85  71  63 E6G15       N/A  HX  90
EWING            N/A     79  73  80 S8G16       N/A
$$

...OBSERVATIONS IN SOUTHWEST NEBRASKA AND FAR NORTHEAST COLORADO...

CITY           SKY/WX    TMP DP  RH WIND       PRES   REMARKS
WRAY           FAIR      97  49  19 W9        29.86S HX  94
HOLYOKE        FAIR      95  59  30 SW6       29.86S HX  94
IMPERIAL       SUNNY     90  63  40 E7        29.84S HX  91
OGALLALA       SUNNY     86  63  46 CALM      29.84S
NORTH PLATTE   MOSUNNY   87  66  49 S9        29.83S
MCCOOK         SUNNY     92  63  38 SE13      29.82F HX  93
LEXINGTON      MOSUNNY   84  69  58 SE13      29.85S
PAXTON           N/A     89  69  52 S6          N/A  HX  93
GOTHENBURG       N/A     84  64  50 SE9         N/A
CALLAWAY         N/A     84  73  69 S18         N/A  HX  90
$$

...NORTH PLATTE AREA...

CITY           SKY/WX    TMP DP  RH WIND       PRES   REMARKS
AIRPORT        MOSUNNY   87  66  49 S9        29.83S
DOWNTOWN         N/A     88  67  50 S5G12       N/A  HX  91
HILLCREST        N/A     86  67  53 S10G17      N/A
$$

...SOME WEATHER OBSERVATIONS FROM AROUND THE REGION...

CITY           SKY/WX    TMP DP  RH WIND       PRES   REMARKS
DENVER         PTSUNNY   88  46  23 N5        29.99S
LARAMIE        MOSUNNY   79  49  34 N12       30.13S
CHEYENNE       SUNNY     87  52  29 W8        30.03S
SCOTTSBLUFF    SUNNY     86  61  42 S6        29.87S
RAPID CITY     PTSUNNY   78  63  59 NE15      29.85R
PIERRE         PTSUNNY   83  69  62 NE3       29.77R
WINNER         FAIR      90  66  45 S15       29.75F HX  92
SIOUX FALLS    MOSUNNY   82  69  64 S12G23    29.81F
OMAHA          CLOUDY    75  67  76 S3        29.92F
GRAND ISLAND   MOSUNNY   83  70  64 SE14      29.88F
KANSAS CITY    CLOUDY    82  72  71 S12       29.98S
WICHITA        MOSUNNY   90  70  51 S16       29.93F HX  95
HAYS           SUNNY     93  66  40 S23G32    29.85S HX  96
LIBERAL        SUNNY     90  64  43 S23G29    29.97S HX  91
GOODLAND       SUNNY     91  59  33 S12       29.87F HX  90
$$



USA.gov is the U.S. government's official web portal to all federal, state and local government web resources and services.